Regional Weather Roundup
Issued by NWS Albany, NY

Home | Current Version | Previous Version | Text Only | Print | Product List | Glossary On
Versions: 1 2 3 4 5 6 7 8 9 10 11 12 13 14 15 16 17 18 19 20 21 22 23 24 25 26 27 28
000
ASUS41 KALY 250210
RWRALY

NEW YORK STATE HOURLY WEATHER ROUNDUP
NATIONAL WEATHER SERVICE ALBANY NY
1000 PM EDT SAT SEP 24 2016

NOTE: "FAIR" INDICATES FEW OR NO CLOUDS BELOW 12,000 FEET WITH NO
SIGNIFICANT WEATHER AND/OR NO OBSTRUCTIONS TO VISIBILITY.

NYZ032-033-038>043-046>054-057>066-NYZ062>081-082-084-250300-
EAST


CITY           SKY/WX    TMP DP  RH WIND       PRES   REMARKS
ALBANY         CLEAR     52  38  58 CALM      30.17R
GLENS FALLS    CLEAR     46  40  79 CALM      30.16R
POUGHKEEPSIE   CLEAR     48  43  82 CALM      30.15R
NEWBURGH       CLEAR     55  45  67 CALM      30.17R
MONTGOMERY     CLEAR     56  43  61 NW6       30.16R
WHITE PLAINS   CLEAR     55  44  66 N5        30.14R
ISLIP          PTCLDY    54  47  77 N3        30.13R
NEW YORK CITY  PTCLDY    66  45  46 N7        30.14R
CENTRAL PARK   CLEAR     64  43  46 CALM      30.17R
$$

NYZ005>009-017-018-044>046-055-056-250300-
CENTRAL


CITY           SKY/WX    TMP DP  RH WIND       PRES   REMARKS
FULTON         PTCLDY    47  44  90 CALM      30.20S
SYRACUSE       CLEAR     51  42  71 CALM      30.20S
ROME           CLEAR     45  43  93 CALM      30.22R
ELMIRA         CLEAR     50  41  71 E3        30.22R
BINGHAMTON     CLEAR     49  38  65 N6        30.21R
MONTICELLO     CLEAR     48  39  71 NW7       30.20R
$$

NYZ026>034-041>043-087-250300-
NORTH


CITY           SKY/WX    TMP DP  RH WIND       PRES   REMARKS
WATERTOWN      CLEAR     41  39  93 E3        30.21R
FORT DRUM      NOT AVBL
OGDENSBURG     FAIR      52  39  63 N6        30.21R
MASSENA        CLEAR     51  32  48 N8        30.22R
SARANAC LAKE   PTCLDY    40  36  86 NE6       30.17S
PLATTSBURGH    CLEAR     49  36  61 W6        30.17R
$$

NYZ001>004-010>016-019>021-085-250300-
WEST


CITY           SKY/WX    TMP DP  RH WIND       PRES   REMARKS
NIAGARA FALLS  CLEAR     51  41  68 CALM      30.23R
BUFFALO        CLEAR     53  41  63 CALM      30.23R
DUNKIRK        CLEAR     48  42  80 CALM      30.24R
JAMESTOWN      CLEAR     52  39  62 NE8       30.23S
WELLSVILLE     CLEAR     49  38  65 N3        30.25S
ROCHESTER      CLEAR     48  44  86 SW5       30.23S
PENN YAN       CLEAR     42  38  85 CALM      30.23S
$$

             KEY
       WCI = WIND CHILL INDEX
       VSB = VISIBILITY
       HX  = HEAT INDEX
$$




USA.gov is the U.S. government's official web portal to all federal, state and local government web resources and services.